Retour au catalogue

STARLINK-35372

ActifCommunicationsVLEO
NORAD 66476·PAYLOAD·🇺🇸 United States

Lancé Nov 15, 2025 depuis Cape Canaveral Space Force Station

Loading…

Prochains Passages (prochaines 24 heures)

TLE

FraisSource: CelesTrak SupGP

Époque: Sep 15, 2026, 03:37 UTC

1 66476C 25262W   26258.15118056  .00022370  00000+0  81034-3 0  2586
2 66476  43.0006 306.2548 0001358 268.9708   7.0941 15.27563671    14

Suivez STARLINK-35372 en temps réel avec AllMySat

Download on the App Store